Location: Unspecified
(0.0000°N, 0.0000°E)
Time: 19:04:21
(UTC+00:00)

SR - Pass Details

Date: 07 August 2021
Orbit: 581 x 874 km, 66.7° (Epoch: 26 September)

Event Time Altitude Azimuth Distance (km) Brightness Sun altitude
Exits shadow 03:50:27 15° 349° (N) 2,151 ? -32.3°
Drops below altitude 10° 03:51:31 10° 355° (N) 2,496 ? -32.0°
Sets 03:54:10 0° 4° (N) 3,410 ? -31.4°
